Preston, MN

1:08 PM CDT on May 24, 2018 (GMT -0500)
Preston

Weather History for KFKA - December, 2012

Change the Weather History Date:

Thursday, December 27, 2012

  Actual Average (KRST) Record (KRST)
Temperature  
Mean Temperature 12 °F -  
Max Temperature 20 °F 23 °F 51 °F (1936)
Min Temperature 4 °F 9 °F -31 °F (1950)
Degree Days  
Heating Degree Days 53    
Moisture  
Dew Point 11 °F    
Average Humidity 87    
Maximum Humidity 93    
Minimum Humidity 77    
Precipitation  
Precipitation 0.00 in - - ()
Sea Level Pressure  
Sea Level Pressure 30.15 in    
Wind  
Wind Speed 4 mph (ENE)    
Max Wind Speed 10 mph    
Max Gust Speed -    
Visibility 8 miles    
Events Snow    
Averages and records for this station are not official NWS values.
T = Trace of Precipitation, MM = Missing Value Source: NWS Daily Summary

Daily Weather History Graph

Daily Weather History Graph

Search for Another Location

Airport or City:

Astronomy

Dec. 27, 2012 Rise Set
Actual Time 7:41 AM CST 4:38 PM CST
Civil Twilight 7:08 AM CST 5:11 PM CST
Nautical Twilight 6:32 AM CST 5:47 PM CST
Astronomical Twilight 5:57 AM CST 6:22 PM CST
Moon 4:23 PM CST (12/27) 6:51 AM CST (12/27)
Length of Visible Light 10h 02m
Length of Day
8h 57m
Full, 100% of the Moon is Illuminated
Dec 27
Full
Dec 28
Full
Jan 4
Last Quarter
Jan 11
New
Jan 18
First Quarter

Hourly Weather History & Observations

Time (CST) Temp. Windchill Dew Point Humidity Pressure Visibility Wind Dir Wind Speed Gust Speed Precip Events Conditions
12:09 AM 7.5 °F -1.1 °F 4.5 °F 87% 30.18 in 10.0 mi North 4.6 mph - N/A   Clear
12:29 AM 7.7 °F 1.0 °F 4.8 °F 88% 30.19 in 10.0 mi North 3.5 mph - N/A   Clear
12:49 AM 8.1 °F -0.5 °F 5.0 °F 87% 30.19 in 10.0 mi NNW 4.6 mph - N/A   Clear
1:10 AM 7.0 °F -1.7 °F 3.6 °F 86% 30.20 in 10.0 mi NW 4.6 mph - N/A   Clear
1:30 AM 6.4 °F -2.4 °F 3.4 °F 87% 30.19 in 10.0 mi North 4.6 mph - N/A   Clear
1:49 AM 7.2 °F 0.3 °F 4.5 °F 89% 30.19 in 10.0 mi North 3.5 mph - N/A   Clear
2:10 AM 7.2 °F -1.5 °F 4.1 °F 87% 30.20 in 10.0 mi NNW 4.6 mph - N/A   Clear
2:30 AM 6.8 °F -2.0 °F 3.7 °F 87% 30.20 in 10.0 mi North 4.6 mph - N/A   Clear
2:50 AM 7.3 °F - 4.5 °F 88% 30.20 in 10.0 mi Calm Calm - N/A   Clear
3:10 AM 7.0 °F - 3.9 °F 87% 30.20 in 10.0 mi Calm Calm - N/A   Clear
3:29 AM 7.7 °F - 4.6 °F 87% 30.20 in 10.0 mi Calm Calm - N/A   Clear
3:50 AM 7.5 °F - 4.6 °F 88% 30.20 in 10.0 mi Calm Calm - N/A   Clear
4:29 AM 7.7 °F 1.0 °F 4.8 °F 88% 30.20 in 10.0 mi NNW 3.5 mph - N/A   Clear
4:50 AM 6.8 °F -0.1 °F 3.9 °F 88% 30.20 in 10.0 mi North 3.5 mph - N/A   Clear
5:10 AM 7.7 °F - 4.8 °F 88% 30.20 in 10.0 mi Calm Calm - N/A   Clear
5:49 AM 7.2 °F - 4.1 °F 87% 30.19 in 10.0 mi Calm Calm - N/A   Clear
6:09 AM 7.3 °F - 4.6 °F 89% 30.19 in 10.0 mi Calm Calm - N/A   Clear
6:30 AM 6.8 °F - 4.1 °F 89% 30.18 in 10.0 mi Calm Calm - N/A   Clear
6:49 AM 6.1 °F - 3.4 °F 89% 30.18 in 10.0 mi Calm Calm - N/A   Clear
7:30 AM 6.6 °F - 3.9 °F 89% 30.19 in 10.0 mi Calm Calm - N/A   Clear
7:49 AM 6.1 °F - 3.9 °F 91% 30.18 in 10.0 mi Calm Calm - N/A   Clear
8:10 AM 4.5 °F - 1.8 °F 89% 30.18 in 10.0 mi Calm Calm - N/A   Clear
8:49 AM 7.5 °F - 5.2 °F 90% 30.19 in 10.0 mi Calm Calm - N/A   Clear
9:10 AM 8.4 °F 1.8 °F 5.5 °F 88% 30.19 in 10.0 mi North 3.5 mph - N/A   Clear
9:30 AM 9.5 °F - 6.8 °F 89% 30.19 in 10.0 mi Calm Calm - N/A   Clear
9:50 AM 11.5 °F 5.3 °F 7.7 °F 85% 30.19 in 10.0 mi NE 3.5 mph - N/A   Clear
10:10 AM 14.5 °F 7.1 °F 10.0 °F 82% 30.20 in 10.0 mi ENE 4.6 mph - N/A   Clear
10:30 AM 14.0 °F - 9.9 °F 84% 30.21 in 10.0 mi Calm Calm - N/A   Clear
10:50 AM 15.3 °F 7.9 °F 10.4 °F 81% 30.19 in 10.0 mi East 4.6 mph - N/A   Clear
11:10 AM 15.6 °F 8.3 °F 10.9 °F 82% 30.19 in 10.0 mi East 4.6 mph - N/A   Mostly Cloudy
11:30 AM 16.2 °F 5.5 °F 10.9 °F 80% 30.18 in 10.0 mi East 8.1 mph - N/A   Overcast
11:49 AM 17.2 °F 8.9 °F 11.3 °F 78% 30.17 in 10.0 mi ESE 5.8 mph - N/A   Overcast
12:10 PM 17.2 °F 8.9 °F 11.7 °F 79% 30.16 in 10.0 mi East 5.8 mph - N/A   Scattered Clouds
12:30 PM 18.0 °F - 12.0 °F 78% 30.16 in 10.0 mi Calm Calm - N/A   Scattered Clouds
12:50 PM 18.9 °F - 12.7 °F 77% 30.16 in 10.0 mi Calm Calm - N/A   Overcast
1:10 PM 19.2 °F - 13.3 °F 78% 30.17 in 10.0 mi Calm Calm - N/A   Overcast
1:30 PM 19.4 °F - 13.3 °F 77% 30.16 in 10.0 mi Calm Calm - N/A   Overcast
1:50 PM 19.4 °F 12.8 °F 13.6 °F 78% 30.14 in 10.0 mi ENE 4.6 mph - N/A   Overcast
2:10 PM 19.9 °F 12.1 °F 13.8 °F 77% 30.15 in 10.0 mi East 5.8 mph - N/A   Overcast
2:30 PM 19.9 °F 11.1 °F 14.0 °F 78% 30.14 in 10.0 mi ENE 6.9 mph - N/A   Overcast
2:50 PM 20.1 °F 11.3 °F 14.7 °F 80% 30.14 in 4.0 mi ENE 6.9 mph - N/A Snow Light Snow
3:09 PM 20.3 °F 11.5 °F 15.1 °F 80% 30.13 in 10.0 mi ENE 6.9 mph - N/A   Overcast
3:30 PM 20.5 °F 10.8 °F 15.3 °F 80% 30.13 in 7.0 mi East 8.1 mph - N/A Snow Light Snow
3:50 PM 20.3 °F 10.6 °F 15.8 °F 83% 30.12 in 3.0 mi East 8.1 mph - N/A Snow Light Snow
4:10 PM 19.9 °F 9.3 °F 16.3 °F 86% 30.12 in 3.0 mi ENE 9.2 mph - N/A Snow Light Snow
4:30 PM 19.8 °F 8.3 °F 16.3 °F 87% 30.11 in 4.0 mi East 10.4 mph - N/A Snow Light Snow
4:50 PM 19.4 °F 8.6 °F 16.5 °F 89% 30.11 in 1.5 mi ENE 9.2 mph - N/A Snow Light Snow
5:10 PM 19.2 °F 10.2 °F 16.7 °F 90% 30.11 in 2.5 mi ENE 6.9 mph - N/A Snow Light Snow
5:30 PM 19.0 °F 9.0 °F 16.5 °F 90% 30.11 in 4.0 mi ENE 8.1 mph - N/A Snow Light Snow
5:50 PM 19.0 °F 10.0 °F 16.3 °F 89% 30.11 in 5.0 mi ENE 6.9 mph - N/A   Overcast
6:10 PM 19.0 °F 10.0 °F 16.3 °F 89% 30.11 in 3.0 mi ENE 6.9 mph - N/A Snow Light Snow
6:30 PM 18.9 °F 10.8 °F 16.3 °F 90% 30.11 in 4.0 mi East 5.8 mph - N/A Snow Light Snow
6:50 PM 18.9 °F 9.8 °F 16.5 °F 91% 30.12 in 5.0 mi East 6.9 mph - N/A Snow Light Snow
7:10 PM 18.9 °F 10.8 °F 16.3 °F 90% 30.11 in 3.0 mi East 5.8 mph - N/A Snow Light Snow
7:29 PM 18.7 °F 9.5 °F 16.5 °F 91% 30.11 in 4.0 mi East 6.9 mph - N/A Snow Light Snow
7:50 PM 18.5 °F 10.4 °F 16.5 °F 92% 30.11 in 3.0 mi ENE 5.8 mph - N/A Snow Light Snow
8:10 PM 18.5 °F 10.4 °F 16.5 °F 92% 30.11 in 3.0 mi ENE 5.8 mph - N/A Snow Light Snow
8:30 PM 18.3 °F 13.1 °F 16.5 °F 93% 30.11 in 3.0 mi ENE 3.5 mph - N/A Snow Light Snow
8:50 PM 18.3 °F 9.1 °F 16.5 °F 93% 30.10 in 5.0 mi NE 6.9 mph - N/A Snow Light Snow
9:09 PM 18.3 °F 11.5 °F 16.7 °F 93% 30.10 in 5.0 mi NE 4.6 mph - N/A Snow Light Snow
9:30 PM 18.3 °F 13.1 °F 16.5 °F 93% 30.10 in 5.0 mi ENE 3.5 mph - N/A Snow Light Snow
9:50 PM 18.1 °F 12.9 °F 16.3 °F 93% 30.10 in 4.0 mi NE 3.5 mph - N/A Snow Light Snow
10:10 PM 18.3 °F 13.1 °F 16.7 °F 93% 30.10 in 4.0 mi ENE 3.5 mph - N/A Snow Light Snow
10:30 PM 18.3 °F 11.5 °F 16.7 °F 93% 30.10 in 4.0 mi ENE 4.6 mph - N/A Snow Light Snow
10:50 PM 18.5 °F 10.4 °F 16.7 °F 93% 30.10 in 4.0 mi ENE 5.8 mph - N/A Snow Light Snow
11:10 PM 18.5 °F 9.3 °F 16.7 °F 93% 30.09 in 3.0 mi ENE 6.9 mph - N/A Snow Light Snow
11:30 PM 18.5 °F 10.4 °F 16.7 °F 93% 30.09 in 3.0 mi ENE 5.8 mph - N/A Snow Light Snow
11:50 PM 18.5 °F 10.4 °F 16.9 °F 93% 30.09 in 2.0 mi East 5.8 mph - N/A Snow Light Snow